Weather History for Florala, AL

Change the Weather History Date:

Wednesday, December 11, 2013

  Actual Average (KCEW) Record (KCEW)
Temperature  
Mean Temperature 48 °F -  
Max Temperature 63 °F 65 °F 78 °F (2007)
Min Temperature 34 °F 39 °F 24 °F (1950)
Degree Days  
Heating Degree Days 16    
Moisture  
Dew Point 38 °F    
Average Humidity 72    
Maximum Humidity 89    
Minimum Humidity 48    
Precipitation  
Precipitation 0.00 in - - ()
Sea Level Pressure  
Sea Level Pressure 30.35 in    
Wind  
Wind Speed 4 mph (NNE)    
Max Wind Speed 7 mph    
Max Gust Speed -    
Visibility 10 miles    
Events      
Averages and records for this station are not official NWS values.
T = Trace of Precipitation, MM = Missing Value Source: NWS Daily Summary

Daily Weather History Graph

Daily Weather History Graph

Search for Another Location

Airport:

Trip Planner

Search our weather history database for the weather conditions in past years. The results will help you decide how hot, cold, wet, or windy it might be!

Date:

Astronomy

Dec. 11, 2013 Rise Set
Actual Time 6:33 AM CST 4:43 PM CST
Civil Twilight 6:06 AM CST 5:10 PM CST
Nautical Twilight 5:36 AM CST 5:40 PM CST
Astronomical Twilight 5:07 AM CST 6:10 PM CST
Moon 1:01 PM CST (12/11) 1:11 AM CST (12/11)
Length of Visible Light 11h 03m
Length of Day
10h 10m
Waxing Gibbous, 72% of the Moon is Illuminated
Dec 11
Waxing Gibbous
Dec 17
Full
Dec 25
Last Quarter
Jan 1
New
Jan 7
First Quarter

Hourly Weather History & Observations

Time (CST) Temp. Windchill Dew Point Humidity Pressure Visibility Wind Dir Wind Speed Gust Speed Precip Events Conditions
12:58 AM 36.0 °F 33.3 °F 33.1 °F 89% 30.34 in 10.0 mi NNE 3.5 mph - N/A   Clear
1:58 AM 36.0 °F 33.3 °F 32.0 °F 86% 30.32 in 10.0 mi North 3.5 mph - N/A   Clear
2:58 AM 36.0 °F 31.1 °F 32.0 °F 86% 30.32 in 10.0 mi North 5.8 mph - N/A   Clear
3:58 AM 34.0 °F 29.8 °F 30.9 °F 89% 30.33 in 10.0 mi NNE 4.6 mph - N/A   Clear
4:58 AM 34.0 °F 28.8 °F 30.0 °F 85% 30.33 in 10.0 mi NNE 5.8 mph - N/A   Clear
5:58 AM 34.0 °F 28.8 °F 30.0 °F 85% 30.35 in 10.0 mi NNE 5.8 mph - N/A   Clear
6:58 AM 35.1 °F 30.1 °F 30.0 °F 82% 30.37 in 10.0 mi NNE 5.8 mph - N/A   Clear
7:58 AM 39.9 °F 35.1 °F 32.0 °F 73% 30.38 in 10.0 mi NE 6.9 mph - N/A   Clear
8:58 AM 46.0 °F 43.9 °F 34.0 °F 63% 30.40 in 10.0 mi NE 4.6 mph - N/A   Clear
9:58 AM 50.0 °F - 34.0 °F 54% 30.39 in 10.0 mi East 5.8 mph - N/A   Clear
10:58 AM 54.0 °F - 37.9 °F 55% 30.37 in 10.0 mi Variable 5.8 mph - N/A   Clear
11:58 AM 57.9 °F - 41.0 °F 53% 30.34 in 10.0 mi NE 4.6 mph - N/A   Clear
12:58 PM 60.1 °F - 42.1 °F 51% 30.32 in 10.0 mi Calm Calm - N/A   Clear
1:58 PM 63.0 °F - 43.0 °F 48% 30.31 in 10.0 mi NNE 4.6 mph - N/A   Clear
2:58 PM 63.0 °F - 43.0 °F 48% 30.31 in 10.0 mi North 5.8 mph - N/A   Clear
3:58 PM 60.1 °F - 44.1 °F 55% 30.32 in 10.0 mi North 4.6 mph - N/A   Clear
4:58 PM 53.1 °F - 46.9 °F 80% 30.33 in 10.0 mi North 3.5 mph - N/A   Clear
5:58 PM 53.1 °F - 45.0 °F 74% 30.34 in 10.0 mi Calm Calm - N/A   Clear
6:58 PM 48.9 °F - 44.1 °F 83% 30.36 in 10.0 mi North 3.5 mph - N/A   Clear
7:58 PM 50.0 °F - 42.1 °F 74% 30.37 in 10.0 mi North 3.5 mph - N/A   Clear
8:58 PM 46.0 °F 43.9 °F 41.0 °F 83% 30.38 in 10.0 mi North 4.6 mph - N/A   Clear
9:58 PM 46.0 °F 43.9 °F 39.9 °F 79% 30.37 in 10.0 mi NNE 4.6 mph - N/A   Clear
10:58 PM 48.0 °F - 39.0 °F 71% 30.35 in 10.0 mi NNE 5.8 mph - N/A   Overcast
11:58 PM 48.0 °F - 39.0 °F 71% 30.38 in 10.0 mi Variable 4.6 mph - N/A   Overcast